Regional Weather Roundup
Issued by NWS Memphis, TN

Home | Current Version | Previous Version | Text Only | Print | Product List | Glossary On
Versions: 1 2 3 4 5 6 7 8 9 10 11 12 13 14 15 16 17 18 19 20 21 22 23 24 25 26 27 28 29 30 31 32 33 34 35 36 37 38 39 40 41 42 43 44 45 46 47 48 49 50
000
ASUS44 KMEG 291210
RWRMEG
MEMPHIS CWA HOURLY WEATHER ROUNDUP
NATIONAL WEATHER SERVICE MEMPHIS TN
700 AM CDT SAT APR 29 2017

...WEST TENNESSEE...

CITY           SKY/WX    TMP DP  RH WIND       PRES   REMARKS
MEMPHIS INTL   CLOUDY    75  69  81 S10       29.87R
6HR MIN TEMP:  75; 6HR MAX TEMP:  77;

NWS MEMPHIS      N/A     74 N/A N/A MISG        N/A
JACKSON        CLOUDY    75  69  81 S9        29.90S
6HR MIN TEMP:  75; 6HR MAX TEMP:  77;

SOMERVILLE     MOCLDY    73  68  83 S8        29.88S HAZE
BOLIVAR        MOCLDY    73  68  83 SE7       29.90R
LEXINGTON      PTSUNNY   73  68  83 S6        29.94R
SAVANNAH       CLOUDY    73  68  83 S12G20    29.93S
DYERSBURG      CLOUDY    75  69  81 VRB7      29.87R
6HR MIN TEMP:  75; 6HR MAX TEMP:  78;

UNION CITY     CLOUDY    75  68  78 S12G20    29.87R
HUNTINGDON     CLOUDY    73  70  88 S7        29.91R


...EASTERN ARKANSAS...

CITY           SKY/WX    TMP DP  RH WIND       PRES   REMARKS
JONESBORO      CLOUDY    75  69  81 S14       29.80R
6HR MIN TEMP:  75; 6HR MAX TEMP:  76;

WEST MEMPHIS   CLOUDY    74  70  87 S18       29.84R
6HR MIN TEMP:  74; 6HR MAX TEMP:  77;

BATESVILLE     CLOUDY    73  70  88 SE9       29.76S
6HR MIN TEMP:  73; 6HR MAX TEMP:  79;

NEWPORT        CLOUDY    74  70  87 MISG      29.79R
6HR MIN TEMP:  74; 6HR MAX TEMP:  77;

WALNUT RIDGE   CLOUDY    73  68  83 S18       29.78R
6HR MIN TEMP:  73; 6HR MAX TEMP:  75;

BLYTHEVILLE    CLOUDY    75  70  84 S12       29.85R
6HR MIN TEMP:  75; 6HR MAX TEMP:  78;

SEARCY         MOCLDY    75  72  90 S13       29.77S
6HR MIN TEMP:  75; 6HR MAX TEMP:  78;

STUTTGART      CLOUDY    75  63  64 S17       29.80R
6HR MIN TEMP:  75; 6HR MAX TEMP:  77;

PINE BLUFF     PTCLDY    76  69  79 S15G22    29.79R
6HR MIN TEMP:  76; 6HR MAX TEMP:  79;

MONTICELLO     CLOUDY    76  69  79 S10       29.80R
6HR MIN TEMP:  76; 6HR MAX TEMP:  79;



...NORTH MISSISSIPPI...

CITY           SKY/WX    TMP DP  RH WIND       PRES   REMARKS
TUPELO         CLOUDY    75  68  78 SE13G21   29.93R
6HR MIN TEMP:  74; 6HR MAX TEMP:  76;

OXFORD         MOCLDY    72  66  83 SE10      29.92R
BATESVILLE     CLOUDY    73  68  83 S5        29.89R
OLIVE BRANCH   MOCLDY   N/A N/A N/A S12       29.87
TUNICA         CLOUDY    72  68  88 S10       29.86R
CLARKSDALE     CLOUDY    75  73  94 S9        29.86R
CORINTH        MOCLDY    75  68  78 S9        29.92F
GREENWOOD      MOCLDY    76  69  79 S15       29.87R
6HR MIN TEMP:  75; 6HR MAX TEMP:  77;

COLUMBUS       PTCLDY    74  70  88 S12       29.93S
6HR MIN TEMP:  74; 6HR MAX TEMP:  76;

STARKVILLE     PTCLDY    72  68  88 SE7       29.94S
GOLDEN TRIANGL CLOUDY    73  64  73 S12       29.91R FOG


...SOUTHEAST MISSOURI...

CITY           SKY/WX    TMP DP  RH WIND       PRES   REMARKS
KENNETT        CLOUDY    75  72  88 S15       29.81S HAZE
MALDEN         CLOUDY    75  70  83 S13G20    29.84R
WEST PLAINS    TSTM      62  60  93 NE22G31   29.76F FOG
6HR MIN TEMP:  62; 6HR MAX TEMP:  66; 6HR PCP:  0.60;

POPLAR BLUFF   CLOUDY    73  71  93 S8        29.81R FOG
6HR MIN TEMP:  66; 6HR MAX TEMP:  75; 6HR PCP:  0.02;

CAPE GIRARDEAU LGT RAIN  64  62  93 E8        29.88R FOG
6HR MIN TEMP:  63; 6HR MAX TEMP:  68;



...NORTHWEST ALABAMA...

CITY           SKY/WX    TMP DP  RH WIND       PRES   REMARKS
MUSCLE SHOALS  SUNNY     73  67  81 SE5       29.99R
6HR MIN TEMP:  72; 6HR MAX TEMP:  76;



...MIDDLE TENNESSEE...

CITY           SKY/WX    TMP DP  RH WIND       PRES   REMARKS
NASHVILLE      PTSUNNY   73  68  84 S9        29.99R
6HR MIN TEMP:  73; 6HR MAX TEMP:  78;

CLARKSVILLE    CLOUDY    73  67  81 SE7       29.95R
6HR MIN TEMP:  72; 6HR MAX TEMP:  77;

COLUMBIA       SUNNY    N/A N/A N/A S9        29.97S


...WESTERN KENTUCKY...

CITY           SKY/WX    TMP DP  RH WIND       PRES   REMARKS
PADUCAH        CLOUDY    76  67  73 S15G22    29.86R
6HR MIN TEMP:  75; 6HR MAX TEMP:  78;

FORT CAMPBELL  MOSUNNY   73  68  84 SE9       29.94R
6HR MIN TEMP:  73; 6HR MAX TEMP:  77;



...CENTRAL ARKANSAS...

CITY           SKY/WX    TMP DP  RH WIND       PRES   REMARKS
LITTLE ROCK    MOCLDY    76  70  82 S13G23    29.75R
6HR MIN TEMP:  76; 6HR MAX TEMP:  78;



SKY/WX REPORTED AS FAIR MEANS FEW OR NO CLOUDS BELOW
12 THOUSAND FEET.





USA.gov is the U.S. government's official web portal to all federal, state and local government web resources and services.